Regional Weather Roundup
Issued by NWS

Home | Current Version | Previous Version | Text Only | Print | Product List | Glossary Off
Versions: 1 2 3 4 5 6 7 8 9 10 11 12 13 14 15 16 17 18 19 20 21 22 23 24 25 26 27 28 29 30 31 32 33 34 35 36 37 38 39 40 41 42 43 44 45 46 47 48 49 50

000
ASUS43 KLMK 110310
RWRKY
KENTUCKY REGIONAL WEATHER ROUNDUP
NATIONAL WEATHER SERVICE LOUISVILLE KY
1000 PM EST WED FEB 10 2016

NOTE "FAIR" INDICATES FEW OR NO CLOUDS BELOW 12,000 FEET
WITH NO SIGNIFICANT WEATHER AND/OR OBSTRUCTIONS TO VISIBILITY.

KYZ001>023-026-027-061>063-070>075-110400-
WESTERN AND SOUTH CENTRAL KENTUCKY

CITY           SKY/WX    TMP DP  RH WIND       PRES   REMARKS
PADUCAH        CLOUDY    25  19  78 E5        30.19R WCI  19
HENDERSON      CLOUDY    21  16  79 SW5       30.19S WCI  15
OWENSBORO      MOCLDY    21  18  88 W8        30.20R WCI  11
HOPKINSVILLE   CLOUDY    23  20  85 S2        30.19F
BOWLING GREEN  CLOUDY    24  17  74 W7        30.21R WCI  16
GLASGOW        CLOUDY    23  17  77 W9        30.18R WCI  13
$$

KYZ024-025-028>034-038-045-046-053-110400-
NORTH CENTRAL KENTUCKY

CITY           SKY/WX    TMP DP  RH WIND       PRES   REMARKS
LOUISVILLE/SDF CLOUDY    22   9  57 W9        30.17R WCI  12
LOUISVILLE/LOU CLOUDY    22   9  57 W9        30.17R WCI  12
FORT KNOX      FLURRIES  22  14  72 SW6       30.14R WCI  14
$$

KYZ035>037-039>044-047>052-055>060-089>105-110400-
NORTHEAST KENTUCKY

CITY           SKY/WX    TMP DP  RH WIND       PRES   REMARKS
LEXINGTON      MOCLDY    17   8  67 W7        30.13R WCI   8
COVINGTON      PTCLDY    13   4  67 NW5       30.12R WCI   5
FRANKFORT        N/A     19   8  62 W3        30.13R
$$

KYZ054-064>069-076>088-106>120-110400-
SOUTHEAST KENTUCKY

CITY           SKY/WX    TMP DP  RH WIND       PRES   REMARKS
JACKSON        PTCLDY    14   5  67 SW3       30.10R
LONDON         PTCLDY    19   8  62 SW3       30.12R
SOMERSET       PTCLDY    21  10  63 W5        30.17S WCI  15
MIDDLESBORO    CLOUDY    23   9  54 CALM      30.14R
MONTICELLO     MOCLDY    23  13  65 W16G23    30.17R WCI  10
$$




USA.gov is the U.S. government's official web portal to all federal, state and local government web resources and services.